User: anonymous
Location: Unspecified
(0.0000°N, 0.0000°E)
Time: 00:06:39
(UTC+02:00)
Language:

Delta 168 - Orbit

View from above orbital plane
View from above orbital plane
View from above satellite
View from above satellite

Ground track
Ground track

The orbit data is extracted from the following two-line orbital elements,

1 14051U 83041B   14112.10148369  .00009641  00000-0  96712-3 0  5015
2 14051 025.3321 309.5413 1132854 041.3823 107.2603 13.00299823427772
Epoch (UTC): 22 April 2014 02:26:08
Eccentricity: 0.1132854
inclination: 25.3321°
perigee height: 395 km
apogee height: 2126 km
right ascension of ascending node: 309.5413°
argument of perigee: 41.3823°
revolutions per day: 13.00299823
mean anomaly at epoch: 107.2603°
orbit number at epoch: 42777

The dashed part of the orbit path shows where the satellite is in the earth's shadow,  

DLR